Location: Hamayl? Da??
(36.7028°N, 30.1716°E)
Time: 13:18:42
(UTC+00:00)

Ariane Rocket - Pass Details

Date: 04 August 2024
Orbit: 757 x 766 km, 98.5° (Epoch: 12 September)

Event Time Altitude Azimuth Distance (km) Brightness Sun altitude
Exits shadow 19:06:02 44° 98° (E) 1,040 3.3 -21.7°
Maximum altitude 19:06:45 47° 72° (ENE) 995 3.3 -21.8°
Drops below altitude 10° 19:11:34 10° 359° (N) 2,294 6.0 -22.5°
Sets 19:13:56 0° 354° (N) 3,222 7.0 -22.8°
